H1 CPF 2 NER 2025 11 6 9 310 01 glonass140 H2 1903001 9140 44299 2025 11 6 0 0 0 2025 11 9 23 45 0 900 1 1 0 0 0 1 H9 10 0 60985 0.00000 0 1836535.700 11229788.936 -22808388.545 10 0 60985 900.00000 0 -625121.428 12524155.597 -22191148.515 10 0 60985 1800.00000 0 -2899191.368 13939570.277 -21141990.943 10 0 60985 2700.00000 0 -4938464.921 15426773.241 -19681329.858 10 0 60985 3600.00000 0 -6706209.196 16929906.831 -17837602.248 10 0 60985 4500.00000 0 -8177444.683 18388828.328 -15646712.018 10 0 60985 5400.00000 0 -9339725.696 19741623.124 -13151326.757 10 0 60985 6300.00000 0 -10193392.679 20927212.103 -10400041.190 10 0 60985 7200.00000 0 -10751287.210 21887942.959 -7446423.963 10 0 60985 8100.00000 0 -11037943.399 22572055.760 -4347966.897 10 0 60985 9000.00000 0 -11088291.520 22935918.362 -1164957.905 10 0 60985 9900.00000 0 -10945930.443 22945937.037 2040699.610 10 0 60985 10800.00000 0 -10661043.659 22580061.636 5206696.973 10 0 60985 11700.00000 0 -10288048.572 21828821.828 8271535.763 10 0 60985 12600.00000 0 -9883079.866 20695851.048 11175724.276 10 0 60985 13500.00000 0 -9501414.321 19197876.473 13862931.357 10 0 60985 14400.00000 0 -9194946.547 17364175.881 16281075.155 10 0 60985 15300.00000 0 -9009822.429 15235524.614 18383325.984 10 0 60985 16200.00000 0 -8984329.997 12862676.973 20129004.566 10 0 60985 17100.00000 0 -9147136.182 10304445.511 21484359.237 10 0 60985 18000.00000 0 -9515943.105 7625458.052 22423208.209 10 0 60985 18900.00000 0 -10096619.838 4893685.151 22927435.717 10 0 60985 19800.00000 0 -10882845.659 2177839.729 22987333.621 10 0 60985 20700.00000 0 -11856279.582 -455244.410 22601782.772 10 0 60985 21600.00000 0 -12987249.217 -2943148.000 21778271.323 10 0 60985 22500.00000 0 -14235930.598 -5230212.199 20532749.867 10 0 60985 23400.00000 0 -15553970.374 -7269599.243 18889326.099 10 0 60985 24300.00000 0 -16886483.494 -9024983.959 16879804.388 10 0 60985 25200.00000 0 -18174343.859 -10471807.210 14543078.360 10 0 60985 26100.00000 0 -19356673.095 -11598040.228 11924387.253 10 0 60985 27000.00000 0 -20373424.035 -12404428.851 9074449.342 10 0 60985 27900.00000 0 -21167951.180 -12904208.073 6048488.157 10 0 60985 28800.00000 0 -21689460.485 -13122299.217 2905169.510 10 0 60985 29700.00000 0 -21895235.363 -13094023.659 -294530.757 10 0 60985 30600.00000 0 -21752544.757 -12863387.312 -3488506.727 10 0 60985 31500.00000 0 -21240152.064 -12481008.219 -6614727.210 10 0 60985 32400.00000 0 -20349360.153 -12001774.833 -9612441.906 10 0 60985 33300.00000 0 -19084547.054 -11482334.121 -12423365.095 10 0 60985 34200.00000 0 -17463168.209 -10978515.991 -14992813.380 10 0 60985 35100.00000 0 -15515223.576 -10542803.449 -17270774.814 10 0 60985 36000.00000 0 -13282210.439 -10221956.085 -19212888.100 10 0 60985 36900.00000 0 -10815604.433 -10054888.088 -20781312.321 10 0 60985 37800.00000 0 -8174931.224 -10070891.302 -21945469.860 10 0 60985 38700.00000 0 -5425508.458 -10288279.258 -22682647.753 10 0 60985 39600.00000 0 -2635951.590 -10713510.331 -22978445.435 10 0 60985 40500.00000 0 124452.937 -11340827.886 -22827059.944 10 0 60985 41400.00000 0 2788398.031 -12152433.407 -22231402.763 10 0 60985 42300.00000 0 5293119.647 -13119185.994 -21203045.782 10 0 60985 43200.00000 0 7582767.269 -14201799.272 -19761997.170 10 0 60985 44100.00000 0 9610482.690 -15352485.599 -17936311.339 10 0 60985 45000.00000 0 11340100.778 -16516978.359 -15761540.426 10 0 60985 45900.00000 0 12747401.878 -17636846.928 -13280038.008 10 0 60985 46800.00000 0 13820864.386 -18652006.348 -10540128.710 10 0 60985 47700.00000 0 14561887.150 -19503315.290 -7595160.311 10 0 60985 48600.00000 0 14984473.871 -20135152.039 -4502457.299 10 0 60985 49500.00000 0 15114394.475 -20497859.130 -1322197.037 10 0 60985 50400.00000 0 14987860.592 -20549952.864 1883768.739 10 0 60985 51300.00000 0 14649772.884 -20260004.005 5053123.244 10 0 60985 52200.00000 0 14151615.927 -19608110.078 8124300.448 10 0 60985 53100.00000 0 13549091.101 -18586897.139 11037683.048 10 0 60985 54000.00000 0 12899588.669 -17202008.964 13736758.925 10 0 60985 54900.00000 0 12259606.551 -15472063.282 16169213.624 10 0 60985 55800.00000 0 11682225.138 -13428077.142 18287937.925 10 0 60985 56700.00000 0 11214744.498 -11112385.585 20051931.666 10 0 60985 57600.00000 0 10896583.092 -8577098.804 21427087.264 10 0 60985 58500.00000 0 10757525.722 -5882161.832 22386838.932 10 0 60985 59400.00000 0 10816393.517 -3093096.913 22912666.229 10 0 60985 60300.00000 0 11080191.026 -278521.449 22994443.407 10 0 60985 61200.00000 0 11543765.554 2492456.687 22630628.717 10 0 60985 62100.00000 0 12189992.660 5152859.907 21828290.718 10 0 60985 63000.00000 0 12990480.030 7640370.747 20602971.336 10 0 60985 63900.00000 0 13906760.531 9899667.510 18978388.234 10 0 60985 64800.00000 0 14891925.087 11884470.408 16985981.765 10 0 60985 65700.00000 0 15892627.747 13559214.659 14664314.470 10 0 60985 66600.00000 0 16851379.757 14900282.129 12058333.772 10 0 60985 67500.00000 0 17709037.205 15896741.078 9218511.044 10 0 60985 68400.00000 0 18407378.400 16550563.823 6199872.670 10 0 60985 69300.00000 0 18891663.002 16876313.525 3060941.005 10 0 60985 70200.00000 0 19113065.213 16900313.480 -137394.928 10 0 60985 71100.00000 0 19030878.162 16659333.830 -3333057.515 10 0 60985 72000.00000 0 18614395.832 16198850.976 -6463984.612 10 0 60985 72900.00000 0 17844392.039 15570953.040 -9469336.112 10 0 60985 73800.00000 0 16714132.725 14831979.820 -12290679.245 10 0 60985 74700.00000 0 15229877.241 14039997.043 -14873129.069 10 0 60985 75600.00000 0 13410845.791 13252211.875 -17166421.466 10 0 60985 76500.00000 0 11288652.608 12522439.284 -19125897.250 10 0 60985 77400.00000 0 8906226.976 11898726.751 -20713377.720 10 0 60985 78300.00000 0 6316265.786 11421238.209 -21897914.228 10 0 60985 79200.00000 0 3579281.057 11120487.131 -22656396.805 10 0 60985 80100.00000 0 761322.974 11015993.929 -22974009.707 10 0 60985 81000.00000 0 -2068527.353 11115424.856 -22844524.748 10 0 60985 81900.00000 0 -4840791.456 11414249.230 -22270426.477 10 0 60985 82800.00000 0 -7488244.027 11895929.829 -21262866.487 10 0 60985 83700.00000 0 -9948470.230 12532638.664 -19841447.535 10 0 60985 84600.00000 0 -12166223.503 13286468.064 -18033841.453 10 0 60985 85500.00000 0 -14095485.775 14111085.857 -15875248.177 10 0 60986 0.00000 0 -15701144.420 14953764.426 -13407706.626 10 0 60986 900.00000 0 -16960217.297 15757697.942 -10679269.620 10 0 60986 1800.00000 0 -17862573.421 16464508.100 -7743062.659 10 0 60986 2700.00000 0 -18411123.090 17016833.236 -4656240.978 10 0 60986 3600.00000 0 -18621468.754 17360889.480 -1478869.194 10 0 60986 4500.00000 0 -18521033.837 17448895.363 1727255.072 10 0 60986 5400.00000 0 -18147707.873 17241256.714 4899809.593 10 0 60986 6300.00000 0 -17548066.791 16708419.085 7977163.611 10 0 60986 7200.00000 0 -16775245.056 15832309.225 10899577.265 10 0 60986 8100.00000 0 -15886550.777 14607304.726 13610360.641 10 0 60986 9000.00000 0 -14940925.347 13040691.058 16056969.906 10 0 60986 9900.00000 0 -13996355.246 11152586.827 18192019.509 10 0 60986 10800.00000 0 -13107345.102 8975340.447 19974191.495 10 0 60986 11700.00000 0 -12322557.953 6552423.294 21369025.275 10 0 60986 12600.00000 0 -11682721.205 3936865.285 22349573.687 10 0 60986 13500.00000 0 -11218885.251 1189297.379 22896913.898 10 0 60986 14400.00000 0 -10951106.719 -1624318.458 23000504.424 10 0 60986 15300.00000 0 -10887610.560 -4435178.774 22658382.330 10 0 60986 16200.00000 0 -11024465.235 -7174245.747 21877197.489 10 0 60986 17100.00000 0 -11345784.053 -9774865.434 20672083.540 10 0 60986 18000.00000 0 -11824444.020 -12175290.160 19066367.956 10 0 60986 18900.00000 0 -12423292.172 -14321002.014 17091126.381 10 0 60986 19800.00000 0 -13096789.250 -16166742.416 14784589.070 10 0 60986 20700.00000 0 -13793022.305 -17678164.533 12191409.963 10 0 60986 21600.00000 0 -14456002.391 -18833040.665 9361811.458 10 0 60986 22500.00000 0 -15028151.341 -19621974.844 6350620.368 10 0 60986 23400.00000 0 -15452873.355 -20048591.197 3216212.887 10 0 60986 24300.00000 0 -15677103.222 -20129190.301 19388.284 10 0 60986 25200.00000 0 -15653723.494 -19891887.920 -3177807.252 10 0 60986 26100.00000 0 -15343748.005 -19375272.179 -6313283.889 10 0 60986 27000.00000 0 -14718178.634 -18626635.572 -9326115.096 10 0 60986 27900.00000 0 -13759455.609 -17699856.182 -12157724.487 10 0 60986 28800.00000 0 -12462438.564 -16653017.438 -14753029.006 10 0 60986 29700.00000 0 -10834875.241 -15545866.942 -17061515.693 10 0 60986 30600.00000 0 -8897336.184 -14437221.706 -19038230.601 10 0 60986 31500.00000 0 -6682616.297 -13382429.630 -20644660.072 10 0 60986 32400.00000 0 -4234626.610 -12430994.552 -21849486.822 10 0 60986 33300.00000 0 -1606821.038 -11624465.415 -22629205.800 10 0 60986 34200.00000 0 1139777.390 -10994678.854 -22968587.466 10 0 60986 35100.00000 0 3938869.486 -10562429.574 -22860979.266 10 0 60986 36000.00000 0 6721397.214 -10336624.741 -22308439.148 10 0 60986 36900.00000 0 9418180.904 -10313958.134 -21321698.270 10 0 60986 37800.00000 0 11962566.831 -10479117.777 -19919953.401 10 0 60986 38700.00000 0 14292974.994 -10805518.085 -18130492.805 10 0 60986 39600.00000 0 16355241.010 -11256525.301 -15988162.815 10 0 60986 40500.00000 0 18104654.557 -11787123.975 -13534685.412 10 0 60986 41400.00000 0 19507609.595 -12345953.372 -10817840.276 10 0 60986 42300.00000 0 20542797.825 -12877626.942 -7890527.579 10 0 60986 43200.00000 0 21201896.271 -13325235.820 -4809730.312 10 0 60986 44100.00000 0 21489721.258 -13632929.497 -1635397.061 10 0 60986 45000.00000 0 21423843.678 -13748463.542 1570732.148 10 0 60986 45900.00000 0 21033683.333 -13625605.786 4746333.186 10 0 60986 46800.00000 0 20359122.131 -13226298.538 7829714.056 10 0 60986 47700.00000 0 19448696.158 -12522485.007 10761015.644 10 0 60986 48600.00000 0 18357444.233 -11497522.537 13483373.275 10 0 60986 49500.00000 0 17144504.657 -10147122.959 15944016.431 10 0 60986 50400.00000 0 15870562.058 -8479780.436 18095285.526 10 0 60986 51300.00000 0 14595251.973 -6516668.768 19895546.710 10 0 60986 52200.00000 0 13374631.978 -4291012.291 21309987.863 10 0 60986 53100.00000 0 12258824.894 -1846956.323 22311281.528 10 0 60986 54000.00000 0 11289931.891 762016.307 22880103.152 10 0 60986 54900.00000 0 10500301.704 3475057.614 23005495.797 10 0 60986 55800.00000 0 9911227.149 6226234.811 22685075.258 10 0 60986 56700.00000 0 9532122.281 8947025.378 21925072.285 10 0 60986 57600.00000 0 9360213.593 11568924.855 20740211.473 10 0 60986 58500.00000 0 9380757.473 14026060.758 19153429.055 10 0 60986 59400.00000 0 9567774.403 16257705.710 17195434.655 10 0 60986 60300.00000 0 9885269.075 18210586.858 14904124.706 10 0 60986 61200.00000 0 10288885.419 19840896.715 12323857.916 10 0 60986 62100.00000 0 10727927.412 21115922.599 9504605.760 10 0 60986 63000.00000 0 11147661.115 22015227.325 6500993.359 10 0 60986 63900.00000 0 11491801.375 22531332.065 3371248.465 10 0 60986 64800.00000 0 11705078.518 22669872.845 176078.185 10 0 60986 65700.00000 0 11735776.681 22449223.944 -3022505.197 10 0 60986 66600.00000 0 11538136.124 21899603.729 -6162386.660 10 0 60986 67500.00000 0 11074517.276 21061700.181 -9182555.701 10 0 60986 68400.00000 0 10317233.937 19984873.664 -12024294.670 10 0 60986 69300.00000 0 9249976.742 18725012.399 -14632324.606 10 0 60986 70200.00000 0 7868765.121 17342130.840 -16955885.768 10 0 60986 71100.00000 0 6182385.719 15897812.127 -18949731.353 10 0 60986 72000.00000 0 4212296.866 14452602.447 -20575014.497 10 0 60986 72900.00000 0 1992001.180 13063467.165 -21800050.906 10 0 60986 73800.00000 0 -434089.185 11781415.994 -22600941.910 10 0 60986 74700.00000 0 -3012248.727 10649397.340 -22962045.468 10 0 60986 75600.00000 0 -5681430.776 9700550.486 -22876285.713 10 0 60986 76500.00000 0 -8375573.519 8956889.195 -22345294.751 10 0 60986 77400.00000 0 -11026124.337 8428471.975 -21379383.705 10 0 60986 78300.00000 0 -13564677.602 8113093.699 -19997343.325 10 0 60986 79200.00000 0 -15925616.181 7996511.088 -18226077.865 10 0 60986 80100.00000 0 -18048646.488 8053191.990 -16100079.184 10 0 60986 81000.00000 0 -19881121.298 8247556.052 -13660751.338 10 0 60986 81900.00000 0 -21380053.374 8535653.464 -10955598.892 10 0 60986 82800.00000 0 -22513735.855 8867209.800 -8037295.131 10 0 60986 83700.00000 0 -23262902.037 9187949.332 -4962648.848 10 0 60986 84600.00000 0 -23621376.627 9442097.333 -1791490.484 10 0 60986 85500.00000 0 -23596192.144 9574954.343 1414499.779 10 0 60987 0.00000 0 -23207166.901 9535432.393 4592998.032 10 0 60987 900.00000 0 -22485963.490 9278444.955 7682254.146 10 0 60987 1800.00000 0 -21474669.448 8767048.988 10622292.144 10 0 60987 2700.00000 0 -20223960.565 7974248.040 13356075.352 10 0 60987 3600.00000 0 -18790925.713 6884380.088 15830609.364 10 0 60987 4500.00000 0 -17236645.308 5494031.532 17997963.337 10 0 60987 5400.00000 0 -15623625.610 3812438.795 19816190.171 10 0 60987 6300.00000 0 -14013196.367 1861360.530 21250128.673 10 0 60987 7200.00000 0 -12462980.419 -325574.521 22272073.259 10 0 60987 8100.00000 0 -11024540.211 -2704017.273 22862299.498 10 0 60987 9000.00000 0 -9741298.416 -5220498.546 23009436.482 10 0 60987 9900.00000 0 -8646818.171 -7814414.201 22710679.805 10 0 60987 10800.00000 0 -7763513.295 -10420313.960 21971841.778 10 0 60987 11700.00000 0 -7101841.009 -12970400.307 20807238.215 10 0 60987 12600.00000 0 -6660009.766 -15397135.245 19239413.977 10 0 60987 13500.00000 0 -6424213.527 -17635848.173 17298712.137 10 0 60987 14400.00000 0 -6369382.159 -19627237.960 15022694.385 10 0 60987 15300.00000 0 -6460416.268 -21319666.275 12455422.920 10 0 60987 16200.00000 0 -6653854.676 -22671147.570 9646616.692 10 0 60987 17100.00000 0 -6899904.601 -23650953.298 6650697.237 10 0 60987 18000.00000 0 -7144749.325 -24240763.523 3525741.711 10 0 60987 18900.00000 0 -7333036.207 -24435317.698 332362.679 10 0 60987 19800.00000 0 -7410440.000 -24242537.024 -2867464.079 10 0 60987 20700.00000 0 -7326192.906 -23683112.766 -6011601.151 10 0 60987 21600.00000 0 -7035473.809 -22789577.302 -9038957.051 10 0 60987 22500.00000 0 -6501554.758 -21604896.414 -11890676.009 10 0 60987 23400.00000 0 -5697612.665 -20180641.553 -14511286.395 10 0 60987 24300.00000 0 -4608128.192 -18574818.643 -16849784.940 10 0 60987 25200.00000 0 -3229810.960 -16849444.490 -18860635.124 10 0 60987 26100.00000 0 -1572010.226 -15067972.637 -20504659.810 10 0 60987 27000.00000 0 343408.220 -13292676.858 -21749810.293 10 0 60987 27900.00000 0 2482715.679 -11582102.239 -22571796.466 10 0 60987 28800.00000 0 4801478.976 -9988690.984 -22954565.487 10 0 60987 29700.00000 0 7246176.730 -8556682.605 -22890619.374 10 0 60987 30600.00000 0 9756207.071 -7320376.538 -22381165.093 10 0 60987 31500.00000 0 12266203.794 -6302829.955 -21436093.947 10 0 60987 32400.00000 0 14708564.803 -5515045.007 -20073790.439 10 0 60987 33300.00000 0 17016087.598 -4955679.104 -18320774.121 10 0 60987 34200.00000 0 19124601.746 -4611289.638 -16211181.255 10 0 60987 35100.00000 0 20975488.326 -4457101.830 -13786096.373 10 0 60987 36000.00000 0 22517980.859 -4458266.197 -11092746.862 10 0 60987 36900.00000 0 23711151.378 -4571551.257 -8183576.611 10 0 60987 37800.00000 0 24525498.536 -4747398.574 -5115217.288 10 0 60987 38700.00000 0 24944071.529 -4932251.809 -1947377.940 10 0 60987 39600.00000 0 24963083.237 -5071059.873 1258324.571 10 0 60987 40500.00000 0 24591987.761 -5109846.966 4439570.677 10 0 60987 41400.00000 0 23853020.201 -4998239.644 7534554.493 10 0 60987 42300.00000 0 22780219.292 -4691843.152 10483187.100 10 0 60987 43200.00000 0 21417975.234 -4154365.952 13228262.921 10 0 60987 44100.00000 0 19819164.904 -3359402.353 15716566.427 10 0 60987 45000.00000 0 18042953.603 -2291797.870 17899897.913 10 0 60987 45900.00000 0 16152356.105 -948539.757 19735999.051 10 0 60987 46800.00000 0 14211659.248 660864.832 21189361.203 10 0 60987 47700.00000 0 12283813.568 2514539.074 22231901.918 10 0 60987 48600.00000 0 10427902.169 4578909.219 22843497.763 10 0 60987 49500.00000 0 8696791.321 6809872.374 23012364.350 10 0 60987 50400.00000 0 7135059.360 9154411.533 22735277.192 10 0 60987 51300.00000 0 5777288.688 11552591.762 22017629.880 10 0 60987 52200.00000 0 4646790.487 13939855.880 20873328.805 10 0 60987 53100.00000 0 3754813.911 16249525.625 19324526.448 10 0 60987 54000.00000 0 3100271.558 18415405.821 17401198.009 10 0 60987 54900.00000 0 2669991.717 20374384.608 15140568.823 10 0 60987 55800.00000 0 2439486.285 22068922.675 12586402.719 10 0 60987 56700.00000 0 2374201.758 23449328.621 9788164.032 10 0 60987 57600.00000 0 2431200.717 24475726.097 6800068.427 10 0 60987 58500.00000 0 2561203.066 25119630.663 3680040.007 10 0 60987 59400.00000 0 2710901.092 25365070.249 488594.201 10 0 60987 60300.00000 0 2825450.640 25209201.839 -2712332.398 10 0 60987 61200.00000 0 2851032.981 24662397.852 -5860582.703 10 0 60987 62100.00000 0 2737378.607 23747797.863 -8894986.913 10 0 60987 63000.00000 0 2440145.524 22500343.669 -11756553.702 10 0 60987 63900.00000 0 1923050.389 20965337.540 -14389621.189 10 0 60987 64800.00000 0 1159661.102 19196583.592 -16742944.790 10 0 60987 65700.00000 0 134773.541 17254189.855 -18770700.296 10 0 60987 66600.00000 0 -1154687.382 15202123.017 -20433382.098 10 0 60987 67500.00000 0 -2699282.168 13105618.236 -21698578.666 10 0 60987 68400.00000 0 -4477204.761 11028552.532 -22541609.802 10 0 60987 69300.00000 0 -6454959.695 9030891.840 -22946012.935 10 0 60987 70200.00000 0 -8588541.534 7166318.572 -22903868.723 10 0 60987 71100.00000 0 -10825068.548 5480138.969 -22415959.367 10 0 60987 72000.00000 0 -13104803.227 4007557.627 -21491756.296 10 0 60987 72900.00000 0 -15363475.864 2772391.081 -20149237.263 10 0 60987 73800.00000 0 -17534814.402 1786273.753 -18414536.160 10 0 60987 74700.00000 0 -19553174.845 1048388.746 -16321432.282 10 0 60987 75600.00000 0 -21356162.079 545733.694 -13910688.924 10 0 60987 76500.00000 0 -22887131.179 253909.206 -11229254.319 10 0 60987 77400.00000 0 -24097464.109 138395.212 -8329340.795 10 0 60987 78300.00000 0 -24948526.208 156259.774 -5267400.609 10 0 60987 79200.00000 0 -25413220.349 258226.559 -2103019.049 10 0 60987 80100.00000 0 -25477073.715 391011.958 1102252.764 10 0 60987 81000.00000 0 -25138812.062 499831.476 4286101.801 10 0 60987 81900.00000 0 -24410398.050 530968.053 7386669.516 10 0 60987 82800.00000 0 -23316533.012 434292.570 10343756.314 10 0 60987 83700.00000 0 -21893644.106 165629.191 13099990.261 10 0 60987 84600.00000 0 -20188400.410 -311134.880 15601937.198 10 0 60987 85500.00000 0 -18255821.041 -1022284.522 17801130.920 10 0 60988 0.00000 0 -16157055.353 -1982931.030 19655003.884 10 0 60988 900.00000 0 -13956927.115 -3196142.813 21127702.229 10 0 60988 1800.00000 0 -11721347.901 -4652587.694 22190768.019 10 0 60988 2700.00000 0 -9514703.224 -6330703.633 22823680.026 10 0 60988 3600.00000 0 -7397322.046 -8197389.958 23014241.217 10 0 60988 4500.00000 0 -5423132.571 -10209191.343 22758807.499 10 0 60988 5400.00000 0 -3637600.498 -12313926.017 22062353.887 10 0 60988 6300.00000 0 -2076033.827 -14452691.572 20938377.171 10 0 60988 7200.00000 0 -762323.217 -16562166.124 19408636.988 10 0 60988 8100.00000 0 291831.111 -18577110.450 17502739.906 10 0 60988 9000.00000 0 1087174.889 -20432968.212 15257573.876 10 0 60988 9900.00000 0 1636627.980 -22068457.080 12716603.052 10 0 60988 10800.00000 0 1964497.251 -23428043.546 9929035.600 10 0 60988 11700.00000 0 2105207.495 -24464198.693 6948879.507 10 0 60988 12600.00000 0 2101603.921 -25139340.722 3833903.806 10 0 60988 13500.00000 0 2002897.730 -25427382.775 644524.582 10 0 60988 14400.00000 0 1862341.436 -25314820.644 -2557363.155 10 0 60988 15300.00000 0 1734732.257 -24801313.940 -5709585.187 10 0 60988 16200.00000 0 1673849.378 -23899735.371 -8750896.095 10 0 60988 17100.00000 0 1729934.031 -22635685.017 -11622171.823 10 0 60988 18000.00000 0 1947319.765 -21046488.969 -14267563.125 10 0 60988 18900.00000 0 2362314.211 -19179723.461 -16635587.002 10 0 60988 19800.00000 0 3001423.174 -17091325.612 -18680134.356 10 0 60988 20700.00000 0 3879993.555 -14843369.445 -20361373.709 10 0 60988 21600.00000 0 5001333.982 -12501599.911 -21646533.006 10 0 60988 22500.00000 0 6356351.913 -10132827.881 -22510543.867 10 0 60988 23400.00000 0 7923724.097 -7802294.946 -22936535.455 10 0 60988 24300.00000 0 9670594.799 -5571118.061 -22916168.052 10 0 60988 25200.00000 0 11553773.836 -3493920.684 -22449799.599 10 0 60988 26100.00000 0 13521385.242 -1616749.227 -21546481.711 10 0 60988 27000.00000 0 15514898.272 24638.461 -20223785.005 10 0 60988 27900.00000 0 17471456.109 1406041.558 -18507456.926 10 0 60988 28800.00000 0 19326404.859 2515589.333 -16430918.598 10 0 60988 29700.00000 0 21015916.744 3353987.482 -14034610.472 10 0 60988 30600.00000 0 22479597.214 3934228.671 -11365199.615 10 0 60988 31500.00000 0 23662966.206 4280780.993 -8474664.394 10 0 60988 32400.00000 0 24519708.970 4428290.197 -5419274.916 10 0 60988 33300.00000 0 25013601.645 4419852.220 -2258489.693 10 0 60988 34200.00000 0 25120030.531 4304930.735 946209.086 10 0 60988 35100.00000 0 24827041.309 4137009.458 4132518.184 10 0 60988 36000.00000 0 24135874.463 3971079.977 7238529.597 10 0 60988 36900.00000 0 23060965.017 3861072.655 10203936.113 10 0 60988 37800.00000 0 21629407.311 3857340.163 12971202.265 10 0 60988 38700.00000 0 19879908.083 4004300.603 15486677.814 10 0 60988 39600.00000 0 17861272.479 4338340.057 17701632.301 10 0 60988 40500.00000 0 15630486.896 4886063.016 19573191.192 10 0 60988 41400.00000 0 13250479.018 5662964.279 21065156.351 10 0 60988 42300.00000 0 10787648.438 6672577.989 22148696.009 10 0 60988 43200.00000 0 8309270.195 7906139.407 22802892.105 10 0 60988 44100.00000 0 5880878.388 9342773.747 23015135.569 10 0 60988 45000.00000 0 3563737.357 10950204.462 22781362.943 10 0 60988 45900.00000 0 1412504.005 12685952.062 22106130.505 10 0 60988 46800.00000 0 -526823.308 14498974.307 21002524.884 10 0 60988 47700.00000 0 -2218585.740 16331680.491 19491911.907 10 0 60988 48600.00000 0 -3638706.475 18122237.034 17603528.186 10 0 60988 49500.00000 0 -4775444.465 19807069.488 15373922.624 10 0 60988 50400.00000 0 -5629629.060 21323457.672 12846257.764 10 0 60988 51300.00000 0 -6214366.622 22612116.445 10069483.432 10 0 60988 52200.00000 0 -6554231.969 23619654.850 7097397.589 10 0 60988 53100.00000 0 -6683978.914 24300810.910 3987611.695 10 0 60988 54000.00000 0 -6646824.310 24620368.259 800439.858 10 0 60988 54900.00000 0 -6492377.959 24554673.711 -2402267.196 10 0 60988 55800.00000 0 -6274305.867 24092691.162 -5558320.867 10 0 60988 56700.00000 0 -6047825.722 23236546.498 -8606402.852 10 0 60988 57600.00000 0 -5867140.874 22001539.349 -11487259.002 10 0 60988 58500.00000 0 -5782921.907 20415619.921 -14144855.219 10 0 60988 59400.00000 0 -5839943.128 18518351.606 -16527472.402 10 0 60988 60300.00000 0 -6074974.918 16359401.788 -18588718.648 10 0 60988 61200.00000 0 -6515022.227 13996623.144 -20288438.452 10 0 60988 62100.00000 0 -7175984.910 11493805.059 -21593500.792 10 0 60988 63000.00000 0 -8061797.859 8918188.627 -22478450.384 10 0 60988 63900.00000 0 -9164088.571 6337848.759 -22926009.065 10 0 60988 64800.00000 0 -10462367.960 3819052.431 -22927417.319 10 0 60988 65700.00000 0 -11924747.614 1423703.115 -22482608.998 10 0 60988 66600.00000 0 -13509154.390 -793022.140 -21600215.623 10 0 60988 67500.00000 0 -15164992.123 -2784744.694 -20297399.929 10 0 60988 68400.00000 0 -16835181.175 -4515579.320 -18599521.704 10 0 60988 69300.00000 0 -18458490.396 -5961382.016 -16539642.282 10 0 60988 70200.00000 0 -19972063.474 -7110499.369 -14157877.299 10 0 60988 71100.00000 0 -21314033.278 -7963989.226 -11500610.410 10 0 60988 72000.00000 0 -22426113.812 -8535304.874 -8619583.603 10 0 60988 72900.00000 0 -23256060.274 -8849457.659 -5570882.297 10 0 60988 73800.00000 0 -23759893.224 -8941695.107 -2413835.635 10 0 60988 74700.00000 0 -23903792.865 -8855752.194 790145.753 10 0 60988 75600.00000 0 -23665583.507 -8641751.396 3978771.051 10 0 60988 76500.00000 0 -23035745.779 -8353841.972 7090085.429 10 0 60988 77400.00000 0 -22017914.256 -8047679.667 10063676.647 10 0 60988 78300.00000 0 -20628840.007 -7777854.546 12841848.241 10 0 60988 79200.00000 0 -18897820.169 -7595376.349 15370736.287 10 0 60988 80100.00000 0 -16865619.004 -7545323.965 17601348.275 10 0 60988 81000.00000 0 -14582925.989 -7664758.209 19490504.472 10 0 60988 81900.00000 0 -12108415.588 -7980985.630 21001664.408 10 0 60988 82800.00000 0 -9506489.515 -8510246.037 22105623.543 10 0 60988 83700.00000 0 -6844795.046 -9256878.543 22781067.823 10 0 60988 84600.00000 0 -4191621.716 -10213000.825 23014976.610 10 0 60988 85500.00000 0 -1613283.388 -11358715.015 22802867.170 99